Lexington Weather

Lexington, Massachusetts, USA

73°F
8/7/2020 11:23am 
  • Lexington Conditions: Clear
  • Temperature: 72.7°F / 22.6°CWarmer 2.5°F than last hour.
  • Dew Point: 63.5°FIncreased 0.9°Fsince last hour.
  • Relative Humidity: 73%Decreased 4.0% since last hour.
  • Wind: Calm, 10-min avg: Calm, gust: None
  • Barometer: 30.14 in Steady
  • Visibility: 10 miles
  • Rain Today: 0.00 in
  •   

Regional Weather Roundup
for Boston / Norton, MA

        
000
ASUS41 KBOX 020405
RWRBOX

REGIONAL WEATHER ROUNDUP
NATIONAL WEATHER SERVICE BOSTON/NORTON MA
1200 AM EDT SUN AUG 02 2020

NOTE:  "FAIR" INDICATES FEW OR NO CLOUDS BELOW 12,000 FEET WITH NO 
SIGNIFICANT WEATHER AND/OR OBSTRUCTIONS TO VISIBILITY.

MAZALL-020500-
EASTERN MASSACHUSETTS
  
CITY           SKY/WX    TMP DP  RH WIND       PRES   REMARKS
BOSTON         PTCLDY    73  67  81 S9        29.99S                  
BEVERLY        PTCLDY    73  66  78 SE5       29.98F                  
LAWRENCE       PTCLDY    73  65  75 SE3       30.00F                  
BEDFORD        PTCLDY    74  68  81 CALM      29.98S                  
BLUE HILL      NOT AVBL                                               
NORWOOD        PTCLDY    73  68  84 S5        29.99S                  
MARSHFIELD     PTCLDY    75  70  83 SW6       29.99S                  
PLYMOUTH       PTCLDY    73  68  84 S5        30.01F                  
TAUNTON        PTCLDY    73  68  84 S3        30.00S                  
NEW BEDFORD    PTCLDY    73  70  90 SW5       30.00F                  
$$

MAZALL-020500-
CAPE COD AND THE ISLANDS
  
CITY           SKY/WX    TMP DP  RH WIND       PRES   REMARKS
FALMOUTH       CLEAR     70  68  94 SW5       30.02S                  
HYANNIS        CLEAR     75  67  76 S6        30.00S                  
CHATHAM        CLEAR     73  66  78 SW6       30.02F                  
PROVINCETOWN   PTCLDY    73  66  78 S7        30.01F                  
NANTUCKET      CLEAR     68  64  87 S3        30.02F                  
MARTHAS VNYRD  PTCLDY    71  68  90 S5        30.01F                  
$$
 
MAZALL-020500-
CENTRAL AND WESTERN MASSACHUSETTS
  
CITY           SKY/WX    TMP DP  RH WIND       PRES   REMARKS
WORCESTER      PTCLDY    72  62  71 SW6       30.03S                  
FITCHBURG      PTCLDY    70  63  78 CALM      30.00S                  
ORANGE         MOCLDY    70  66  87 CALM      30.00F                  
SPRINGFIELD    MOCLDY    76  62  62 S5        29.97S                  
WESTFIELD      MOCLDY    76  62  62 S6        29.97S                  
NORTH ADAMS    CLOUDY    70  62  76 CALM      29.99S                  
PITTSFIELD     PTCLDY    67  62  84 CALM      30.00S                  
$$
 
RIZALL-020500-
RHODE ISLAND
  
CITY           SKY/WX    TMP DP  RH WIND       PRES   REMARKS
PROVIDENCE     PTCLDY    74  70  87 S7        30.01S                  
NEWPORT        PTCLDY    75  71  87 SW6       30.01S                  
BLOCK ISLAND   PTCLDY    74  70  87 SW7       30.01S                  
SMITHFIELD     PTCLDY    72  70  93 S3        30.02S                  
WESTERLY       PTCLDY    73  68  84 CALM      30.01S                  
$$
 
CTZALL-020500-
CONNECTICUT
  
CITY           SKY/WX    TMP DP  RH WIND       PRES   REMARKS
BRADLEY INTL   MOCLDY    78  63  59 S6        29.97S                  
HARTFORD       MOCLDY    77  66  68 SE3       29.97S                  
BRIDGEPORT     PTCLDY    78  71  79 SW5       29.98F                  
DANBURY        MOCLDY    74  66  76 CALM      30.00F                  
GROTON         PTCLDY    73  69  87 CALM      29.99S                  
NEW HAVEN      MOCLDY    77  72  84 CALM      29.99S                  
CHESTER        FAIR      73  72  94 S6        30.00F                  
MERIDEN        MOCLDY    75  65  70 CALM      29.99S                  
WILLIMANTIC    MOCLDY    76  65  68 SE5       29.99F                  
OXFORD         MOCLDY    73  66  78 CALM      30.02S                  
$$

MEZ002-015-021-024-NHZ003-005-008-011-012-014-VTZ005-008-020500-
NORTHERN NEW ENGLAND
  
CITY           SKY/WX    TMP DP  RH WIND       PRES   REMARKS
PORTLAND ME    MOCLDY    73  61  65 SW3       30.00R                  
BANGOR ME      PTCLDY    70  64  81 S6        29.98R                  
CONCORD NH     PTCLDY    70  62  76 CALM      29.99S                  
MANCHESTER NH  PTCLDY    74  61  63 SE3       29.97F                  
NASHUA NH      PTCLDY    71  65  81 CALM      29.99F                  
PORTSMOUTH NH  PTCLDY    70  61  71 SE3       29.98S                  
JAFFREY NH     PTCLDY    67  63  87 CALM      30.03S                  
KEENE NH       PTCLDY    66  65  96 CALM      30.00S                  
BURLINGTON VT  MOCLDY    72  63  73 NE5       29.95S                  
MT. WASHINGTON FOG       54  52  94 S10         N/A  VSB 1/8          
$$

NYZ052-076-020500-
EASTERN NEW YORK
  
CITY           SKY/WX    TMP DP  RH WIND       PRES   REMARKS
ALBANY         MOCLDY    71  64  78 CALM      29.95S                  
NEW YORK CITY  MOCLDY    80  70  71 S6        29.96F                  
$$
 
ANZALL-020500-
MARINE OBSERVATIONS
  
STATION/POSITION TIME  TEMP    WIND        PRES    VSBY  WAVE
                       AIR SEA DIR/SP/G                  HT/PER
                 (UTC) (F)     (DEG/KT/KT) (MB)    (MI)  (FT/S)
BOSTON BUOY      0350   71 71  160/  6/  6 1014.2F         1/ 9
BUZZARDS BAY     0300          190/ 15/ 16 1016.9F
NANTUCKET SOUND  0340      76  210/ 10/ 12 1015.4F
MASS BAY-STELLWA 0304   74     220/ 12/ 12 1013.3R  1 3/4  1/ 3
ISLE OF SHOALS   0300   73     190/ 10/ 10 1015.1R
S OF BLOCK IS    0326      74                N/A           3/11
$$

......................KEY.........................
  SKY/WX - SKY CONDITION/PRESENT WEATHER
  TMP    - TEMPERATURE IN FAHRENHEIT
  DWPT   - DEWPOINT IN FAHRENHEIT
  RH     - RELATIVE HUMIDITY IN PERCENT
  WIND   - DIRECTION AND SPEED IN MPH
  PRES   - MEAN SEA LEVEL PRESSURE IN INCHES OF HG
  WCI    - WIND CHILL INDEX
  VSB    - VISIBILITY IN MILES
  HX     - HEAT INDEX
  TC     - TEMPERATURE IN CELSIUS
  VRB    - VARIABLE WIND DIRECTION
  N/A    - NOT AVAILABLE
  
      

Other recent Regional Weather Roundups

Fri Aug 7, 11:04am

Fri Aug 7, 10:04am

Fri Aug 7, 9:04am

Fri Aug 7, 8:04am

Fri Aug 7, 7:04am

Fri Aug 7, 6:04am

Fri Aug 7, 5:04am

Fri Aug 7, 4:04am

Fri Aug 7, 3:04am

Fri Aug 7, 2:04am

Fri Aug 7, 1:05am

Fri Aug 7, 12:04am

Thu Aug 6, 11:04pm

Thu Aug 6, 10:04pm

Thu Aug 6, 9:04pm

Thu Aug 6, 8:04pm

Thu Aug 6, 7:04pm

Thu Aug 6, 6:04pm

Thu Aug 6, 5:04pm

Thu Aug 6, 4:05pm

Thu Aug 6, 3:04pm

Thu Aug 6, 2:05pm

Thu Aug 6, 1:04pm

Thu Aug 6, 12:04pm

Thu Aug 6, 11:04am

Thu Aug 6, 10:04am

Thu Aug 6, 9:04am

Thu Aug 6, 8:04am

Thu Aug 6, 7:04am

Thu Aug 6, 6:04am

Thu Aug 6, 5:04am

Thu Aug 6, 4:04am

Thu Aug 6, 3:04am

Thu Aug 6, 2:05am

Thu Aug 6, 1:04am

Thu Aug 6, 12:04am

Wed Aug 5, 11:04pm

Wed Aug 5, 10:04pm

Wed Aug 5, 9:04pm

Wed Aug 5, 8:05pm

Wed Aug 5, 7:04pm

Wed Aug 5, 6:04pm

Wed Aug 5, 5:04pm

Wed Aug 5, 4:05pm

Wed Aug 5, 3:04pm

Wed Aug 5, 2:04pm

Wed Aug 5, 1:04pm

Wed Aug 5, 12:04pm

Wed Aug 5, 11:04am

Wed Aug 5, 10:04am

Wed Aug 5, 9:04am

Wed Aug 5, 8:04am

Wed Aug 5, 7:04am

Wed Aug 5, 6:04am

Wed Aug 5, 5:04am

Wed Aug 5, 4:04am

Wed Aug 5, 3:04am

Wed Aug 5, 2:05am

Wed Aug 5, 1:04am

Wed Aug 5, 12:05am

Tue Aug 4, 11:05pm

Tue Aug 4, 10:05pm

Tue Aug 4, 9:04pm

Tue Aug 4, 8:04pm

Tue Aug 4, 7:05pm

Tue Aug 4, 6:05pm

Tue Aug 4, 5:05pm

Tue Aug 4, 4:05pm

Tue Aug 4, 3:04pm

Tue Aug 4, 2:05pm

Tue Aug 4, 1:04pm

Tue Aug 4, 12:05pm

Tue Aug 4, 11:04am

Tue Aug 4, 10:04am

Tue Aug 4, 9:04am

Tue Aug 4, 8:04am

Tue Aug 4, 7:04am

Tue Aug 4, 6:04am

Tue Aug 4, 5:04am

Tue Aug 4, 4:04am

Tue Aug 4, 3:04am

Tue Aug 4, 2:04am

Tue Aug 4, 1:04am

Tue Aug 4, 12:04am

Mon Aug 3, 11:04pm

Mon Aug 3, 10:04pm

Mon Aug 3, 9:04pm

Mon Aug 3, 8:05pm

Mon Aug 3, 7:04pm

Mon Aug 3, 6:04pm

Mon Aug 3, 5:04pm

Mon Aug 3, 4:05pm

Mon Aug 3, 3:04pm

Mon Aug 3, 2:04pm

Mon Aug 3, 1:04pm

Mon Aug 3, 12:05pm

Mon Aug 3, 11:04am

Mon Aug 3, 10:04am

Mon Aug 3, 9:05am

Mon Aug 3, 8:04am

Mon Aug 3, 7:04am

Mon Aug 3, 6:04am

Mon Aug 3, 5:04am

Mon Aug 3, 4:04am

Mon Aug 3, 3:04am

Mon Aug 3, 2:04am

Mon Aug 3, 1:04am

Mon Aug 3, 12:05am

Sun Aug 2, 11:04pm

Sun Aug 2, 10:04pm

Sun Aug 2, 9:04pm

Sun Aug 2, 8:04pm

Sun Aug 2, 7:04pm

Sun Aug 2, 6:04pm

Sun Aug 2, 5:04pm

Sun Aug 2, 4:05pm

Sun Aug 2, 3:04pm

Sun Aug 2, 2:05pm

Sun Aug 2, 1:04pm

Sun Aug 2, 12:04pm

Sun Aug 2, 11:04am

Sun Aug 2, 10:04am

Sun Aug 2, 9:05am

Sun Aug 2, 8:05am

Sun Aug 2, 7:04am

Sun Aug 2, 6:04am

Sun Aug 2, 5:04am

Sun Aug 2, 4:05am

Sun Aug 2, 3:04am

Sun Aug 2, 2:04am

Sun Aug 2, 1:04am

Sat Aug 1, 11:04pm

Sat Aug 1, 10:04pm

Sat Aug 1, 9:04pm

Sat Aug 1, 8:05pm

Sat Aug 1, 7:04pm

Sat Aug 1, 6:04pm

Sat Aug 1, 5:05pm

Sat Aug 1, 4:05pm

Sat Aug 1, 3:04pm

Sat Aug 1, 2:04pm

Sat Aug 1, 1:04pm

Sat Aug 1, 12:04pm

Sat Aug 1, 11:05am

Sat Aug 1, 10:05am

Sat Aug 1, 9:04am

Sat Aug 1, 8:04am

Sat Aug 1, 7:04am

Sat Aug 1, 6:04am

Sat Aug 1, 5:04am

Sat Aug 1, 4:05am

Sat Aug 1, 3:04am

Sat Aug 1, 2:04am

Sat Aug 1, 1:04am

Sat Aug 1, 12:05am

Fri Jul 31, 11:05pm

Fri Jul 31, 10:04pm

Fri Jul 31, 9:04pm

Fri Jul 31, 8:05pm

Fri Jul 31, 7:05pm

Fri Jul 31, 6:04pm

Fri Jul 31, 5:04pm

Fri Jul 31, 4:05pm

Fri Jul 31, 3:04pm

Fri Jul 31, 2:05pm

Fri Jul 31, 1:04pm

Fri Jul 31, 12:04pm

Meta data:

ID: bcb1bc29-cbf3-4493-8a9b-0534c501d541
Link: https://api.weather.gov/products/bcb1bc29-cbf3-4493-8a9b-0534c501d541